Tracking 28799 objects as of 18-Apr-2024
HD Live streaming from Space Station
objects crossing your sky now

COSMOS 2251 DEB

Track COSMOS 2251 DEB now!
10-day predictions


NORAD ID: 33816
Int'l Code: 1993-036BH
Perigee: 771.4 km
Apogee: 1,170.7 km
Inclination: 73.9 °
Period: 104.3 minutes
Semi major axis: 7342 km
RCS: 0.0795 m2 (small)
Launch date: June 16, 1993
Source: Commonwealth of Independent States (former USSR) (CIS)
Launch site: PLESETSK MISSILE AND SPACE COMPLEX (PKMTR)

Note: This is SATELLITE DEBRIS
Your satellite tracking list
Your tracking list is empty




NASA's NSSDC Master Catalog

Two Line Element Set (TLE):
1 33816U 93036BH  24108.24282766  .00001406  00000-0  10421-2 0  9995
2 33816  73.8971  48.7434 0271897 175.8868 184.4586 13.79991805763289
Source of the keplerian elements: AFSPC